| time (UTC) | temp F | wind direction | speed MPH | gust MPH | rain 1hr in | rain 24hr in | rain mn in | humidity % | barometer mb |
| 20260831103102 | 66 | 176 | 1.0 | 3.0 | 0.00 | 0.13 | 0.08 | 99 | 1017.2 |
| 20260831102602 | 66 | 212 | 1.0 | 2.0 | 0.00 | 0.13 | 0.08 | 99 | 1017.1 |
| 20260831102102 | 66 | 203 | 1.0 | 2.0 | 0.00 | 0.13 | 0.08 | 99 | 1017.2 |
| 20260831101104 | 66 | 189 | 1.0 | 3.0 | 0.01 | 0.13 | 0.08 | 99 | 1017.1 |
| 20260831100603 | 66 | 200 | 1.0 | 2.0 | 0.01 | 0.13 | 0.08 | 98 | 1017.1 |
| 20260831100103 | 66 | 189 | 0.0 | 2.0 | 0.01 | 0.13 | 0.08 | 98 | 1017.1 |
| 20260831095103 | 66 | 197 | 0.0 | 2.0 | 0.02 | 0.13 | 0.08 | 98 | 1017.2 |
| 20260831094602 | 66 | 218 | 0.0 | 2.0 | 0.02 | 0.13 | 0.08 | 98 | 1017.1 |
| 20260831094102 | 66 | 195 | 2.0 | 3.0 | 0.02 | 0.13 | 0.08 | 98 | 1017.1 |
| 20260831092603 | 66 | 166 | 1.0 | 2.0 | 0.02 | 0.13 | 0.08 | 98 | 1017.0 |
| 20260831092103 | 66 | 181 | 1.0 | 3.0 | 0.02 | 0.13 | 0.08 | 98 | 1017.0 |
| 20260831091102 | 66 | 180 | 2.0 | 3.0 | 0.01 | 0.12 | 0.07 | 98 | 1017.1 |
| 20260831090603 | 66 | 170 | 1.0 | 3.0 | 0.01 | 0.12 | 0.07 | 98 | 1017.2 |
| 20260831085603 | 66 | 177 | 2.0 | 3.0 | 0.01 | 0.11 | 0.06 | 98 | 1017.2 |
| 20260831085103 | 66 | 155 | 1.0 | 3.0 | 0.01 | 0.11 | 0.06 | 98 | 1017.3 |
| 20260831083103 | 66 | 166 | 0.0 | 1.0 | 0.02 | 0.11 | 0.06 | 98 | 1017.5 |
| 20260831082602 | 66 | 166 | 0.0 | 2.0 | 0.02 | 0.11 | 0.06 | 98 | 1017.6 |
| 20260831082103 | 66 | 162 | 0.0 | 3.0 | 0.02 | 0.11 | 0.06 | 98 | 1017.7 |
| 20260831081603 | 66 | 161 | 0.0 | 1.0 | 0.02 | 0.11 | 0.06 | 98 | 1017.7 |
| 20260831081103 | 66 | 161 | 1.0 | 3.0 | 0.02 | 0.11 | 0.06 | 98 | 1017.7 |
| 20260831080603 | 66 | 245 | 1.0 | 2.0 | 0.02 | 0.11 | 0.06 | 98 | 1017.7 |
| 20260831075103 | 66 | 245 | 0.0 | 1.0 | 0.02 | 0.10 | 0.05 | 98 | 1017.7 |
| 20260831074103 | 66 | 249 | 0.0 | 3.0 | 0.02 | 0.10 | 0.05 | 98 | 1017.8 |
| 20260831073602 | 66 | 223 | 1.0 | 3.0 | 0.02 | 0.10 | 0.05 | 98 | 1017.9 |
| 20260831073103 | 66 | 228 | 1.0 | 3.0 | 0.01 | 0.09 | 0.04 | 98 | 1017.9 |
| 20260831072602 | 66 | 231 | 0.0 | 1.0 | 0.01 | 0.09 | 0.04 | 98 | 1017.9 |
| 20260831072103 | 66 | 212 | 0.0 | 2.0 | 0.01 | 0.09 | 0.04 | 98 | 1017.9 |
| 20260831071603 | 66 | 180 | 1.0 | 3.0 | 0.02 | 0.09 | 0.04 | 98 | 1017.8 |
| 20260831070603 | 66 | 245 | 0.0 | 2.0 | 0.02 | 0.09 | 0.04 | 98 | 1017.9 |
| 20260831070103 | 66 | 235 | 0.0 | 2.0 | 0.02 | 0.09 | 0.04 | 98 | 1018.0 |
| 20260831065604 | 66 | 190 | 0.0 | 2.0 | 0.02 | 0.09 | 0.04 | 98 | 1017.9 |
| 20260831064104 | 66 | 257 | 1.0 | 2.0 | 0.02 | 0.08 | 0.03 | 98 | 1018.1 |
| 20260831063603 | 66 | 257 | 0.0 | 0.0 | 0.03 | 0.08 | 0.03 | 98 | 1018.1 |
| 20260831063102 | 66 | 257 | 0.0 | 0.0 | 0.03 | 0.08 | 0.03 | 98 | 1018.2 |
| 20260831062603 | 66 | 257 | 0.0 | 0.0 | 0.03 | 0.08 | 0.03 | 98 | 1018.2 |
| 20260831062102 | 66 | 257 | 0.0 | 1.0 | 0.03 | 0.08 | 0.03 | 98 | 1018.3 |
| 20260831061603 | 66 | 257 | 0.0 | 2.0 | 0.02 | 0.07 | 0.02 | 98 | 1018.3 |
| 20260831061103 | 66 | 257 | 0.0 | 1.0 | 0.02 | 0.07 | 0.02 | 98 | 1018.4 |
| 20260831060602 | 66 | 257 | 0.0 | 1.0 | 0.02 | 0.07 | 0.02 | 98 | 1018.4 |
| 20260831055603 | 66 | 257 | 0.0 | 1.0 | 0.02 | 0.07 | 0.02 | 98 | 1018.5 |
| 20260831055103 | 66 | 257 | 1.0 | 1.0 | 0.02 | 0.07 | 0.02 | 98 | 1018.5 |
| 20260831054602 | 66 | 257 | 0.0 | 1.0 | 0.01 | 0.06 | 0.01 | 98 | 1018.4 |
| 20260831053603 | 66 | 258 | 1.0 | 3.0 | 0.00 | 0.05 | 0.00 | 97 | 1018.4 |
| 20260831053102 | 66 | 235 | 0.0 | 2.0 | 0.00 | 0.05 | 0.00 | 97 | 1018.3 |
| 20260831052602 | 66 | 242 | 1.0 | 3.0 | 0.00 | 0.05 | 0.00 | 97 | 1018.3 |
| 20260831052102 | 66 | 245 | 0.0 | 2.0 | 0.00 | 0.05 | 0.00 | 97 | 1018.3 |
| 20260831051603 | 66 | 245 | 0.0 | 0.0 | 0.00 | 0.05 | 0.00 | 97 | 1018.2 |
| 20260831050603 | 66 | 245 | 0.0 | 2.0 | 0.00 | 0.05 | 0.00 | 97 | 1018.4 |
| 20260831050104 | 66 | 207 | 0.0 | 2.0 | 0.00 | 0.05 | 0.00 | 97 | 1018.4 |
| 20260831045103 | 66 | 205 | 0.0 | 0.0 | 0.00 | 0.05 | 0.00 | 97 | 1018.3 |
| 20260831044103 | 66 | 205 | 0.0 | 0.0 | 0.00 | 0.05 | 0.00 | 97 | 1018.3 |
| 20260831043603 | 66 | 205 | 0.0 | 1.0 | 0.00 | 0.05 | 0.00 | 97 | 1018.3 |
| 20260831043103 | 66 | 205 | 0.0 | 0.0 | 0.00 | 0.05 | 0.00 | 97 | 1018.3 |
| 20260831042603 | 66 | 205 | 0.0 | 2.0 | 0.00 | 0.05 | 0.00 | 97 | 1018.2 |
| 20260831042103 | 66 | 205 | 0.0 | 1.0 | 0.00 | 0.05 | 0.00 | 97 | 1018.3 |
| 20260831040603 | 66 | 235 | 0.0 | 1.0 | 0.00 | 0.05 | 0.00 | 97 | 1018.4 |
| 20260831035103 | 66 | 235 | 0.0 | 1.0 | 0.00 | 0.05 | 0.05 | 97 | 1018.5 |
| 20260831034603 | 66 | 245 | 0.0 | 1.0 | 0.00 | 0.05 | 0.05 | 97 | 1018.5 |
| 20260831034103 | 66 | 245 | 0.0 | 0.0 | 0.00 | 0.05 | 0.05 | 97 | 1018.4 |
| 20260831033603 | 66 | 245 | 0.0 | 1.0 | 0.00 | 0.05 | 0.05 | 97 | 1018.5 |
| 20260831033103 | 66 | 247 | 0.0 | 2.0 | 0.00 | 0.05 | 0.05 | 97 | 1018.4 |
| 20260831032602 | 66 | 253 | 0.0 | 3.0 | 0.00 | 0.05 | 0.05 | 97 | 1018.4 |
| 20260831032103 | 65 | 260 | 0.0 | 2.0 | 0.00 | 0.05 | 0.05 | 97 | 1018.4 |
| 20260831031103 | 65 | 245 | 0.0 | 2.0 | 0.00 | 0.05 | 0.05 | 97 | 1018.5 |
| 20260831030603 | 65 | 236 | 1.0 | 3.0 | 0.00 | 0.05 | 0.05 | 97 | 1018.6 |
| 20260831025603 | 65 | 209 | 0.0 | 1.0 | 0.00 | 0.05 | 0.05 | 97 | 1018.6 |
| 20260831025103 | 65 | 213 | 1.0 | 2.0 | 0.00 | 0.05 | 0.05 | 97 | 1018.7 |
| 20260831023603 | 65 | 235 | 1.0 | 3.0 | 0.00 | 0.05 | 0.05 | 96 | 1018.7 |
| 20260831023103 | 65 | 259 | 1.0 | 3.0 | 0.00 | 0.05 | 0.05 | 96 | 1018.6 |
| 20260831022602 | 65 | 274 | 1.0 | 5.0 | 0.00 | 0.05 | 0.05 | 96 | 1018.5 |
| 20260831022103 | 65 | 239 | 1.0 | 3.0 | 0.00 | 0.05 | 0.05 | 96 | 1018.5 |
| 20260831021102 | 65 | 222 | 1.0 | 3.0 | 0.00 | 0.05 | 0.05 | 96 | 1018.5 |
| 20260831020603 | 65 | 289 | 1.0 | 3.0 | 0.00 | 0.05 | 0.05 | 96 | 1018.5 |
| 20260831015603 | 65 | 266 | 2.0 | 3.0 | 0.00 | 0.05 | 0.05 | 96 | 1018.5 |
| 20260831015102 | 65 | 235 | 1.0 | 3.0 | 0.00 | 0.05 | 0.05 | 96 | 1018.5 |
| 20260831014602 | 65 | 249 | 0.0 | 0.0 | 0.00 | 0.05 | 0.05 | 96 | 1018.6 |
| 20260831014103 | 65 | 249 | 0.0 | 1.0 | 0.00 | 0.05 | 0.05 | 96 | 1018.6 |
| 20260831013603 | 65 | 257 | 0.0 | 3.0 | 0.00 | 0.05 | 0.05 | 96 | 1018.6 |
| 20260831012603 | 65 | 239 | 1.0 | 3.0 | 0.00 | 0.05 | 0.05 | 96 | 1018.5 |
| 20260831012102 | 65 | 222 | 2.0 | 5.0 | 0.00 | 0.05 | 0.05 | 96 | 1018.5 |
| 20260831011603 | 65 | 277 | 1.0 | 3.0 | 0.00 | 0.05 | 0.05 | 96 | 1018.4 |
| 20260831011103 | 65 | 248 | 1.0 | 3.0 | 0.00 | 0.05 | 0.05 | 96 | 1018.4 |
| 20260831010603 | 65 | 271 | 1.0 | 3.0 | 0.00 | 0.05 | 0.05 | 96 | 1018.4 |
| 20260831005103 | 65 | 245 | 1.0 | 5.0 | 0.00 | 0.05 | 0.05 | 95 | 1018.3 |
| 20260831004603 | 65 | 248 | 1.0 | 3.0 | 0.00 | 0.05 | 0.05 | 95 | 1018.3 |
| 20260831004103 | 65 | 272 | 2.0 | 5.0 | 0.00 | 0.05 | 0.05 | 95 | 1018.1 |
| 20260831003602 | 65 | 277 | 2.0 | 3.0 | 0.00 | 0.05 | 0.05 | 95 | 1017.9 |
| 20260831003103 | 65 | 263 | 1.0 | 7.0 | 0.00 | 0.05 | 0.05 | 95 | 1017.8 |
| 20260831002603 | 65 | 257 | 2.0 | 5.0 | 0.00 | 0.05 | 0.05 | 95 | 1017.9 |
| 20260831002103 | 66 | 263 | 1.0 | 5.0 | 0.00 | 0.05 | 0.05 | 94 | 1017.9 |
| 20260831001603 | 66 | 220 | 1.0 | 5.0 | 0.00 | 0.05 | 0.05 | 94 | 1017.8 |
| 20260831001103 | 66 | 231 | 2.0 | 3.0 | 0.00 | 0.05 | 0.05 | 94 | 1017.8 |
| 20260831000603 | 66 | 289 | 1.0 | 3.0 | 0.00 | 0.05 | 0.05 | 94 | 1017.8 |
| 20260830235602 | 66 | 223 | 0.0 | 7.0 | 0.00 | 0.05 | 0.05 | 94 | 1017.7 |
| 20260830235102 | 66 | 265 | 0.0 | 2.0 | 0.00 | 0.05 | 0.05 | 93 | 1017.7 |
| 20260830234603 | 66 | 255 | 0.0 | 5.0 | 0.00 | 0.05 | 0.05 | 93 | 1017.8 |
| 20260830234103 | 66 | 231 | 1.0 | 3.0 | 0.00 | 0.05 | 0.05 | 93 | 1017.8 |
| 20260830233603 | 66 | 258 | 1.0 | 2.0 | 0.00 | 0.05 | 0.05 | 93 | 1017.7 |
| 20260830233103 | 66 | 235 | 2.0 | 5.0 | 0.00 | 0.05 | 0.05 | 92 | 1017.7 |
| 20260830232602 | 66 | 245 | 1.0 | 3.0 | 0.00 | 0.05 | 0.05 | 92 | 1017.8 |
| 20260830231603 | 66 | 327 | 0.0 | 3.0 | 0.00 | 0.05 | 0.05 | 92 | 1017.7 |
| 20260830231103 | 66 | 268 | 2.0 | 3.0 | 0.00 | 0.05 | 0.05 | 92 | 1017.7 |
| 20260830230603 | 66 | 261 | 1.0 | 3.0 | 0.00 | 0.05 | 0.05 | 92 | 1017.7 |
| 20260830225103 | 66 | 254 | 1.0 | 3.0 | 0.00 | 0.05 | 0.05 | 92 | 1017.9 |
| 20260830224603 | 66 | 270 | 0.0 | 2.0 | 0.00 | 0.05 | 0.05 | 91 | 1017.8 |
| 20260830224103 | 66 | 292 | 1.0 | 5.0 | 0.00 | 0.05 | 0.05 | 91 | 1017.8 |
| 20260830223603 | 67 | 289 | 2.0 | 5.0 | 0.00 | 0.05 | 0.05 | 91 | 1017.9 |
| 20260830223102 | 67 | 283 | 1.0 | 3.0 | 0.00 | 0.05 | 0.05 | 91 | 1017.9 |
| 20260830222603 | 67 | 236 | 0.0 | 3.0 | 0.00 | 0.05 | 0.05 | 91 | 1017.9 |
| 20260830222103 | 67 | 257 | 0.0 | 0.0 | 0.00 | 0.05 | 0.05 | 91 | 1017.9 |
| 20260830221603 | 67 | 276 | 0.0 | 0.0 | 0.00 | 0.05 | 0.05 | 91 | 1017.9 |
| 20260830221102 | 67 | 276 | 0.0 | 0.0 | 0.00 | 0.05 | 0.05 | 91 | 1018.0 |
| 20260830220603 | 67 | 276 | 0.0 | 0.0 | 0.00 | 0.05 | 0.05 | 91 | 1017.9 |
| 20260830215103 | 67 | 293 | 0.0 | 3.0 | 0.00 | 0.05 | 0.05 | 91 | 1017.9 |
| 20260830214102 | 67 | 303 | 1.0 | 3.0 | 0.00 | 0.05 | 0.05 | 91 | 1017.9 |
| 20260830213603 | 67 | 272 | 1.0 | 3.0 | 0.00 | 0.05 | 0.05 | 91 | 1017.8 |
| 20260830212603 | 67 | 288 | 0.0 | 1.0 | 0.00 | 0.05 | 0.05 | 92 | 1017.7 |
| 20260830212103 | 67 | 245 | 0.0 | 0.0 | 0.00 | 0.05 | 0.05 | 92 | 1017.7 |
| 20260830211603 | 67 | 282 | 1.0 | 5.0 | 0.00 | 0.05 | 0.05 | 92 | 1017.8 |
| 20260830211103 | 67 | 304 | 2.0 | 3.0 | 0.00 | 0.05 | 0.05 | 92 | 1017.9 |
| 20260830210603 | 67 | 247 | 2.0 | 3.0 | 0.00 | 0.05 | 0.05 | 92 | 1017.9 |
| 20260830205603 | 66 | 306 | 1.0 | 3.0 | 0.00 | 0.05 | 0.05 | 92 | 1017.9 |
| 20260830205103 | 66 | 299 | 1.0 | 3.0 | 0.01 | 0.05 | 0.05 | 93 | 1017.9 |
| 20260830204103 | 66 | 315 | 2.0 | 3.0 | 0.02 | 0.05 | 0.05 | 92 | 1017.8 |
| 20260830203603 | 66 | 307 | 1.0 | 3.0 | 0.02 | 0.05 | 0.05 | 92 | 1017.9 |
| 20260830202603 | 66 | 304 | 1.0 | 3.0 | 0.02 | 0.05 | 0.05 | 92 | 1017.9 |
| 20260830202103 | 66 | 292 | 1.0 | 2.0 | 0.02 | 0.05 | 0.05 | 92 | 1017.9 |
| 20260830201603 | 66 | 283 | 1.0 | 9.0 | 0.02 | 0.05 | 0.05 | 92 | 1018.0 |
| 20260830201103 | 66 | 297 | 2.0 | 6.0 | 0.02 | 0.05 | 0.05 | 93 | 1018.1 |
| 20260830200603 | 67 | 290 | 2.0 | 7.0 | 0.02 | 0.05 | 0.05 | 93 | 1018.1 |
| 20260830200103 | 67 | 308 | 2.0 | 10.0 | 0.02 | 0.05 | 0.05 | 93 | 1018.1 |
| 20260830195103 | 67 | 309 | 2.0 | 6.0 | 0.01 | 0.04 | 0.04 | 93 | 1018.2 |
| 20260830194602 | 67 | 306 | 2.0 | 8.0 | 0.01 | 0.04 | 0.04 | 92 | 1018.2 |
| 20260830194103 | 67 | 317 | 3.0 | 7.0 | 0.00 | 0.03 | 0.03 | 92 | 1018.3 |
| 20260830193602 | 67 | 328 | 3.0 | 8.0 | 0.00 | 0.03 | 0.03 | 92 | 1018.3 |
| 20260830193103 | 67 | 293 | 3.0 | 8.0 | 0.00 | 0.03 | 0.03 | 92 | 1018.2 |
| 20260830192603 | 68 | 328 | 2.0 | 10.0 | 0.00 | 0.03 | 0.03 | 92 | 1018.3 |
| 20260830192103 | 68 | 306 | 3.0 | 8.0 | 0.00 | 0.03 | 0.03 | 92 | 1018.2 |
| 20260830191603 | 68 | 299 | 3.0 | 7.0 | 0.00 | 0.03 | 0.03 | 92 | 1018.2 |
| 20260830191103 | 68 | 307 | 2.0 | 12.0 | 0.00 | 0.03 | 0.03 | 92 | 1018.3 |
| 20260830190602 | 68 | 288 | 3.0 | 12.0 | 0.00 | 0.03 | 0.03 | 93 | 1018.3 |
| 20260830190103 | 69 | 288 | 2.0 | 9.0 | 0.00 | 0.03 | 0.03 | 93 | 1018.4 |
| 20260830185603 | 69 | 280 | 3.0 | 7.0 | 0.00 | 0.03 | 0.03 | 94 | 1018.3 |
| 20260830185103 | 69 | 229 | 2.0 | 6.0 | 0.00 | 0.03 | 0.03 | 94 | 1018.1 |
| 20260830184602 | 69 | 227 | 1.0 | 3.0 | 0.00 | 0.03 | 0.03 | 95 | 1018.3 |
| 20260830184103 | 69 | 304 | 3.0 | 7.0 | 0.00 | 0.03 | 0.03 | 95 | 1018.5 |
| 20260830183103 | 69 | 283 | 1.0 | 3.0 | 0.00 | 0.03 | 0.03 | 96 | 1018.6 |
| 20260830182603 | 69 | 286 | 1.0 | 2.0 | 0.00 | 0.03 | 0.03 | 95 | 1018.5 |
| 20260830182103 | 69 | 222 | 2.0 | 3.0 | 0.00 | 0.03 | 0.03 | 95 | 1018.5 |
| 20260830181603 | 69 | 267 | 0.0 | 2.0 | 0.00 | 0.03 | 0.03 | 95 | 1018.6 |
| 20260830181103 | 68 | 231 | 0.0 | 2.0 | 0.00 | 0.03 | 0.03 | 95 | 1018.7 |
| 20260830180603 | 68 | 245 | 0.0 | 2.0 | 0.00 | 0.03 | 0.03 | 95 | 1018.7 |
| 20260830175603 | 68 | 245 | 1.0 | 3.0 | 0.00 | 0.03 | 0.03 | 95 | 1018.7 |
| 20260830175103 | 68 | 257 | 0.0 | 2.0 | 0.00 | 0.03 | 0.03 | 95 | 1018.6 |
| 20260830174603 | 68 | 280 | 0.0 | 2.0 | 0.00 | 0.03 | 0.03 | 95 | 1018.6 |
| 20260830174103 | 68 | 280 | 0.0 | 1.0 | 0.00 | 0.03 | 0.03 | 95 | 1018.7 |
| 20260830173603 | 68 | 280 | 0.0 | 1.0 | 0.00 | 0.03 | 0.03 | 95 | 1018.6 |
| 20260830173103 | 68 | 281 | 0.0 | 1.0 | 0.00 | 0.03 | 0.03 | 95 | 1018.6 |
| 20260830172603 | 68 | 291 | 0.0 | 1.0 | 0.00 | 0.03 | 0.03 | 95 | 1018.6 |
| 20260830172103 | 68 | 289 | 0.0 | 2.0 | 0.00 | 0.03 | 0.03 | 95 | 1018.6 |
| 20260830171603 | 68 | 304 | 1.0 | 3.0 | 0.00 | 0.03 | 0.03 | 95 | 1018.6 |
| 20260830171103 | 68 | 314 | 1.0 | 3.0 | 0.00 | 0.03 | 0.03 | 95 | 1018.6 |
| 20260830170603 | 68 | 288 | 0.0 | 1.0 | 0.00 | 0.03 | 0.03 | 95 | 1018.5 |
| 20260830170103 | 68 | 288 | 0.0 | 1.0 | 0.00 | 0.03 | 0.03 | 95 | 1018.5 |
| 20260830165603 | 68 | 288 | 0.0 | 2.0 | 0.00 | 0.03 | 0.03 | 95 | 1018.5 |
| 20260830165103 | 68 | 301 | 1.0 | 3.0 | 0.00 | 0.03 | 0.03 | 95 | 1018.6 |
| 20260830164603 | 68 | 282 | 0.0 | 1.0 | 0.00 | 0.03 | 0.03 | 96 | 1018.6 |
| 20260830164103 | 68 | 282 | 1.0 | 2.0 | 0.00 | 0.03 | 0.03 | 96 | 1018.5 |
| 20260830163103 | 68 | 288 | 0.0 | 3.0 | 0.00 | 0.03 | 0.03 | 96 | 1018.5 |
| 20260830162603 | 67 | 249 | 1.0 | 2.0 | 0.01 | 0.03 | 0.03 | 95 | 1018.6 |
| 20260830161603 | 67 | 276 | 0.0 | 2.0 | 0.01 | 0.03 | 0.03 | 95 | 1018.6 |
| 20260830161103 | 67 | 286 | 0.0 | 0.0 | 0.01 | 0.03 | 0.03 | 95 | 1018.7 |
| 20260830160603 | 67 | 286 | 1.0 | 2.0 | 0.01 | 0.03 | 0.03 | 95 | 1018.8 |
| 20260830160103 | 67 | 213 | 0.0 | 3.0 | 0.01 | 0.03 | 0.03 | 95 | 1018.9 |
| 20260830155603 | 67 | 328 | 0.0 | 2.0 | 0.02 | 0.03 | 0.03 | 95 | 1018.8 |
| 20260830155104 | 67 | 326 | 1.0 | 3.0 | 0.02 | 0.03 | 0.03 | 95 | 1019.0 |
| 20260830154603 | 67 | 318 | 1.0 | 3.0 | 0.02 | 0.03 | 0.03 | 95 | 1019.0 |
| 20260830154103 | 66 | 320 | 1.0 | 2.0 | 0.03 | 0.03 | 0.03 | 95 | 1018.9 |
| 20260830153103 | 66 | 339 | 1.0 | 3.0 | 0.03 | 0.03 | 0.03 | 94 | 1019.1 |
| 20260830152604 | 66 | 318 | 5.0 | 8.0 | 0.02 | 0.02 | 0.02 | 93 | 1019.1 |
| 20260830151103 | 67 | 310 | 2.0 | 7.0 | 0.02 | 0.02 | 0.02 | 92 | 1018.9 |
| 20260830150603 | 67 | 308 | 3.0 | 7.0 | 0.02 | 0.02 | 0.02 | 92 | 1018.8 |
| 20260830150104 | 67 | 310 | 5.0 | 9.0 | 0.02 | 0.02 | 0.02 | 91 | 1018.7 |
| 20260830145103 | 68 | 333 | 5.0 | 10.0 | 0.01 | 0.01 | 0.01 | 90 | 1018.8 |
| 20260830144603 | 68 | 336 | 6.0 | 12.0 | 0.01 | 0.01 | 0.01 | 90 | 1018.7 |
| 20260830144103 | 68 | 344 | 5.0 | 7.0 | 0.00 | 0.00 | 0.00 | 89 | 1018.6 |
| 20260830143604 | 68 | 320 | 3.0 | 7.0 | 0.00 | 0.00 | 0.00 | 89 | 1018.6 |
| 20260830143103 | 68 | 342 | 3.0 | 7.0 | 0.00 | 0.00 | 0.00 | 89 | 1018.5 |
| 20260830142603 | 68 | 317 | 2.0 | 3.0 | 0.00 | 0.00 | 0.00 | 89 | 1018.5 |
| 20260830141603 | 67 | 300 | 1.0 | 3.0 | 0.00 | 0.00 | 0.00 | 88 | 1018.4 |
| 20260830141103 | 67 | 325 | 1.0 | 2.0 | 0.00 | 0.00 | 0.00 | 88 | 1018.4 |
| 20260830140603 | 67 | 325 | 1.0 | 2.0 | 0.00 | 0.00 | 0.00 | 87 | 1018.3 |
| 20260830140104 | 67 | 325 | 1.0 | 2.0 | 0.00 | 0.00 | 0.00 | 87 | 1018.3 |
| 20260830135603 | 67 | 325 | 0.0 | 3.0 | 0.00 | 0.00 | 0.00 | 87 | 1018.2 |
| 20260830135103 | 67 | 330 | 1.0 | 2.0 | 0.00 | 0.00 | 0.00 | 87 | 1018.2 |
| 20260830134603 | 67 | 310 | 0.0 | 3.0 | 0.00 | 0.00 | 0.00 | 86 | 1018.1 |
| 20260830133603 | 66 | 328 | 1.0 | 3.0 | 0.00 | 0.00 | 0.00 | 87 | 1018.1 |
| 20260830133104 | 66 | 355 | 1.0 | 2.0 | 0.00 | 0.00 | 0.00 | 87 | 1018.0 |
| 20260830132603 | 66 | 359 | 0.0 | 1.0 | 0.00 | 0.00 | 0.00 | 87 | 1018.0 |
| 20260830132103 | 66 | 8 | 1.0 | 3.0 | 0.00 | 0.00 | 0.00 | 87 | 1018.0 |
| 20260830131602 | 66 | 230 | 0.0 | 2.0 | 0.00 | 0.00 | 0.00 | 86 | 1017.9 |
| 20260830131103 | 66 | 227 | 0.0 | 3.0 | 0.00 | 0.00 | 0.00 | 86 | 1017.8 |
| 20260830130603 | 66 | 235 | 0.0 | 2.0 | 0.00 | 0.00 | 0.00 | 87 | 1017.8 |
| 20260830125603 | 65 | 249 | 1.0 | 2.0 | 0.00 | 0.00 | 0.00 | 87 | 1017.8 |
| 20260830125103 | 65 | 279 | 1.0 | 2.0 | 0.00 | 0.00 | 0.00 | 87 | 1017.9 |
| 20260830124603 | 65 | 234 | 1.0 | 2.0 | 0.00 | 0.00 | 0.00 | 87 | 1017.9 |
| 20260830123603 | 65 | 350 | 0.0 | 1.0 | 0.00 | 0.00 | 0.00 | 88 | 1018.0 |
| 20260830123103 | 65 | 350 | 0.0 | 2.0 | 0.00 | 0.00 | 0.00 | 88 | 1018.0 |
| 20260830122603 | 65 | 245 | 0.0 | 2.0 | 0.00 | 0.00 | 0.00 | 88 | 1018.0 |
| 20260830121103 | 64 | 245 | 0.0 | 1.0 | 0.00 | 0.00 | 0.00 | 89 | 1018.0 |
| 20260830120603 | 64 | 245 | 0.0 | 1.0 | 0.00 | 0.00 | 0.00 | 88 | 1018.1 |
| 20260830115603 | 64 | 235 | 0.0 | 1.0 | 0.00 | 0.00 | 0.00 | 89 | 1018.1 |
| 20260830115103 | 64 | 235 | 0.0 | 2.0 | 0.00 | 0.00 | 0.00 | 89 | 1018.1 |
| 20260830114603 | 64 | 240 | 0.0 | 3.0 | 0.00 | 0.00 | 0.00 | 89 | 1018.1 |
| 20260830114103 | 64 | 220 | 1.0 | 2.0 | 0.00 | 0.00 | 0.00 | 89 | 1017.9 |
| 20260830113103 | 64 | 245 | 0.0 | 2.0 | 0.00 | 0.00 | 0.00 | 89 | 1017.8 |
| 20260830112603 | 64 | 235 | 0.0 | 2.0 | 0.00 | 0.00 | 0.00 | 89 | 1017.8 |
| 20260830112103 | 64 | 235 | 1.0 | 2.0 | 0.00 | 0.00 | 0.00 | 89 | 1017.9 |
| 20260830111603 | 64 | 241 | 1.0 | 2.0 | 0.00 | 0.00 | 0.00 | 89 | 1018.1 |
| 20260830111103 | 64 | 224 | 0.0 | 3.0 | 0.00 | 0.00 | 0.00 | 89 | 1018.0 |
| 20260830110603 | 64 | 254 | 0.0 | 1.0 | 0.00 | 0.00 | 0.00 | 89 | 1018.0 |
| 20260830105603 | 64 | 235 | 0.0 | 1.0 | 0.00 | 0.00 | 0.00 | 89 | 1018.0 |
| 20260830105103 | 64 | 223 | 1.0 | 3.0 | 0.00 | 0.00 | 0.00 | 89 | 1018.1 |
| 20260830104603 | 64 | 253 | 0.0 | 1.0 | 0.00 | 0.00 | 0.00 | 88 | 1018.1 |